Regional Weather Roundup
Issued by NWS

Home | Current Version | Previous Version | Graphics & Text | Print | Product List | Glossary On
Versions: 1 2 3 4 5 6 7 8 9 10 11 12 13 14 15 16 17 18 19 20 21 22 23 24 25 26 27 28 29 30 31 32 33 34 35 36 37 38 39 40 41 42 43 44 45 46 47 48 49 50
000
ASUS43 KMPX 191110
RWRMN
WEATHER ROUNDUP FOR MINNESOTA
NATIONAL WEATHER SERVICE TWIN CITIES/CHANHASSEN MN
600 AM CDT THU OCT 19 2017


NOTE: "FAIR" INDICATES FEW OR NO CLOUDS BELOW 12,000 FEET WITH NO
SIGNIFICANT WEATHER AND/OR OBSTRUCTIONS TO VISIBILITY. N/A MEANS
CURRENT SKY AND/OR WEATHER CONDITIONS ARE NOT AVAILABLE.

MNZ060>063-068>070-191200-
   Twin Cities Metro

CITY           SKY/WX    TMP DP  RH WIND       PRES   REMARKS
TWIN CITIES    CLOUDY    46  33  60 CALM      30.05R
ST PAUL        CLOUDY    41  36  82 CALM      30.06R
CRYSTAL        CLOUDY    42  29  59 CALM      30.03R
BLAINE         CLOUDY    43  34  70 SW5       30.04R
LAKEVILLE      CLOUDY    36  34  93 CALM      30.05S
EDEN PRAIRIE     N/A     43  37  79 CALM      30.04R
SOUTH ST PAUL  CLOUDY    42  32  68 CALM      30.05R
LAKE ELMO      FAIR      37  34  87 CALM      30.05S
$$
MNZ001>005-007-008-013>017-022>024-027-028-191200-
   Northwest Minnesota

CITY           SKY/WX    TMP DP  RH WIND       PRES   REMARKS
BEMIDJI        CLOUDY    34  24  67 CALM      29.93F
HALLOCK        CLOUDY    30  18  59 SE7       29.87S WCI  23
ROSEAU         CLOUDY    39  27  60 SW6       29.88S
WARROAD        CLOUDY    39  25  56 SW10      29.88R
THIEF RVR FALL CLOUDY    36  24  62 S6        29.91F
CROOKSTON      CLOUDY    34  25  69 SE8       29.91F WCI  27
FOSSTON        CLOUDY    34  23  64 S5        29.93F WCI  30
DETROIT LAKES  CLOUDY    43  32  65 S5        29.96S
MOORHEAD       CLOUDY    36  28  75 SE7       29.95S
PARK RAPIDS    CLOUDY    39  27  62 CALM      29.95S
MAHNOMEN       FAIR      36  27  68 S8        29.94R
$$
MNZ006-009>011-018-025>026-191200-
   North Central Minnesota

CITY           SKY/WX    TMP DP  RH WIND       PRES   REMARKS
BAUDETTE       PTCLDY    41  21  44 W8        29.88R
FLAG ISLAND    CLOUDY    43  23  45 SW9       29.84R
INTL FALLS     PTCLDY    40  21  46 W7        29.86R
WASKISH        PTCLDY    45  32  61 W10G16    29.90S
BIG FORK       CLOUDY    37  25  60 SW7       29.92R
LONGVILLE      CLOUDY    43  28  56 SW3       29.95S
GRAND RAPIDS   PTCLDY    44  26  49 W5        29.96R
CRANE LAKE     PTCLDY    43  18  36 SW5       29.88R
ORR            CLOUDY    43  18  36 W6        29.87R
COOK           CLOUDY    41  23  48 W7        29.90R
WALKER         FAIR      43  24  47 SW3       29.95S
$$
MNZ012-019>021-037-191200-
   Northeast Minnesota

CITY           SKY/WX    TMP DP  RH WIND       PRES   REMARKS
DULUTH         PTCLDY    41  26  55 W12       29.93S
ELY            PTCLDY    43  19  39 W9        29.87R
HIBBING        CLOUDY    38  23  55 SW6       29.93R
EVELETH        CLOUDY    38  19  44 SW7       29.93R
DULUTH HARBOR  CLOUDY    46  30  53 SW12      29.96S
TWO HARBORS    CLOUDY    41  28  60 SW8       29.90R
SILVER BAY     MOCLDY    41  25  52 CALM      29.88S
GRAND MARAIS     N/A     40  31  70 W6        29.84R
G MARAIS ARPRT CLOUDY    43  16  33 W7        29.82R
$$
MNZ029>031-032-039>041-046>048-054>057-064-191200-
   West Central Minnesota

CITY           SKY/WX    TMP DP  RH WIND       PRES   REMARKS
FERGUS FALLS   CLOUDY    39  30  70 SE7       29.98S
WHEATON        CLOUDY    37  32  81 SE5       29.97F
MORRIS         CLOUDY    36  34  93 SE7       29.97S
ALEXANDRIA     CLOUDY    40  32  73 CALM      29.99F
ELBOW LAKE     FAIR      40  32  74 CALM      29.98S
WADENA         CLOUDY    34  28  80 CALM      29.96F
GLENWOOD       CLOUDY    39  32  75 S3        30.00S
APPLETON       CLOUDY    37  30  75 SE3       29.98F
BENSON         CLOUDY    37  30  75 S3        30.01S
ORTONVILLE     CLOUDY    39  34  81 NE7       29.97F
MADISON        CLOUDY    43  34  70 S7        29.99S
WILLMAR        FAIR      37  34  87 SE5       30.02S
$$
MNZ033>034-036-042>043-049>051-058-059-191200-
   Central Minnesota

CITY           SKY/WX    TMP DP  RH WIND       PRES   REMARKS
ST CLOUD       CLOUDY    38  33  82 SE3       30.02R
SAUK CENTRE    FAIR      36  32  84 CALM      30.00S
PAYNESVILLE    CLOUDY    37  34  89 CALM      30.02S
AITKIN         CLOUDY    39  27  60 SW3       29.96S
PINE RIVER     CLOUDY    30  25  80 CALM      30.00S
BRAINERD       CLOUDY    37  27  67 SW5       29.98S
STAPLES        CLOUDY    36  28  75 CALM      29.98R
LONG PRAIRIE   FAIR      36  32  87 CALM      30.00S
LITTLE FALLS   CLOUDY    36  28  75 CALM      30.01R
LITCHFIELD     CLOUDY    39  34  81 CALM      30.02S
BUFFALO        PTCLDY    38  32  78 CALM      30.05R
MAPLE LAKE     PTCLDY    38  34  86 CALM      30.05R
HUTCHINSON     CLOUDY    35  34  97 CALM      30.04S
$$
MNZ037-044-045-052-053-191200-
   East Central Minnesota

CITY           SKY/WX    TMP DP  RH WIND       PRES   REMARKS
PRINCETON      PTCLDY    36  30  80 CALM      30.03R
MORA           CLOUDY    34  30  86 CALM      30.02S
CAMBRIDGE      CLOUDY    39  30  70 CALM      30.03R
RUSH CITY      CLOUDY    39  32  75 CALM      30.02S
MOOSE LAKE     CLOUDY    34  28  80 CALM      29.97R
HINCKLEY       FAIR      34  32  93 CALM      30.01R
CLOQUET        PTCLDY    43  21  42 SW7       29.96R
MCGREGOR       CLOUDY    43  28  56 SW3       29.98R
$$
MNZ071>073-080-081-089-090-097-098-191200-
   Southwest Minnesota

CITY           SKY/WX    TMP DP  RH WIND       PRES   REMARKS
MONTEVIDEO     CLOUDY    43  30  61 SW6       30.00S
GRANITE FALLS  CLOUDY    38  33  82 S7        30.02F
CANBY          PTCLDY    42  32  68 E6        30.00S
MARSHALL       CLOUDY    44  29  55 S8        30.02S
REDWOOD FALLS  CLOUDY    37  32  82 S8        30.03R
OLIVIA         CLOUDY    39  32  75 SE3       30.01F
PIPESTONE      CLOUDY    43  28  56 SE3       30.03S
WORTHINGTON    CLOUDY    44  31  60 S8        30.06R
JACKSON        CLOUDY    39  32  75 S6        30.07R
TRACY          CLOUDY    49  31  49 S12       30.04R
SLAYTON        CLOUDY    38  26  61 S3        30.06R
$$
MNZ065>067-074>077-082>085-091>093-191200-
   South Central Minnesota

CITY           SKY/WX    TMP DP  RH WIND       PRES   REMARKS
MANKATO        CLOUDY    41  34  76 SE7       30.05S
NEW ULM          N/A     37  30  75 S6        30.05R
ST JAMES       CLOUDY    39  34  81 S3        30.07R
FAIRMONT       CLOUDY    37  33  85 SW5       30.07R
GLENCOE        CLOUDY    39  34  81 CALM      30.03S
FARIBAULT      CLOUDY    36  34  93 CALM      30.06S
OWATONNA       CLOUDY    37  34  87 SE5       30.06F
WASECA         CLOUDY    36  32  87 CALM      30.07S
$$
MNZ078>079-086>088-094>096-191200-
   Southeast Minnesota

CITY           SKY/WX    TMP DP  RH WIND       PRES   REMARKS
ROCHESTER      CLOUDY    41  32  70 W5        30.08R
RED WING       CLOUDY    37  32  81 CALM      30.05S
STANTON        CLOUDY    38  33  82 CALM      30.05R
DODGE CENTER   CLOUDY    37  32  81 S3        30.07R
WINONA         MOCLDY    39  34  81 CALM      30.08R
AUSTIN         CLOUDY    39  34  81 CALM      30.08R
PRESTON        CLOUDY    42  30  62 CALM      30.09R
$$
ABBREVIATIONS USED IN REMARKS
   TC - TEMPERATURES IN CELSIUS
  WCI - WIND CHILL INDEX
   HX - HEAT INDEX
  VSB - VISIBILITY
$$




USA.gov is the U.S. government's official web portal to all federal, state and local government web resources and services.